Regional Weather Roundup
Issued by NWS State College, PA

Home | Current Version | Previous Version | Text Only | Print | Product List | Glossary On
Versions: 1 2 3 4 5 6 7 8 9 10 11 12 13 14 15 16 17 18 19 20 21 22 23 24 25 26 27 28 29 30 31 32 33 34 35 36 37 38 39 40 41 42 43 44 45 46 47 48 49 50
000
ASUS41 KCTP 210110
RWRCTP

REGIONAL WEATHER ROUNDUP
NATIONAL WEATHER SERVICE STATE COLLEGE PA
900 PM EDT WED SEP 20 2017

Note: "fair" indicates few or no clouds below 12,000 feet with no
significant weather and/or obstructions to visibility.

* = STATION THAT DOES NOT REPORT PRECIPITATION /E.G. RAIN...SNOW...ETC/
    THUNDER OR FOG.

PAZ002>004-007>009-013>016-020>023-029>032-210200-
WESTERN PENNSYLVANIA

CITY           SKY/WX    TMP DP  RH WIND       PRES   REMARKS
ERIE           CLEAR     70  62  76 CALM      30.03S
MEADVILLE      CLEAR     70  62  76 N6        30.06R
FRANKLIN*      CLEAR     66  60  81 CALM      30.07R
NEW CASTLE     FAIR      70  65  84 CALM      30.05R
BEAVER COUNTY  PTCLDY    73  64  73 CALM      30.05R
BUTLER*        PTCLDY    68  65  90 CALM      30.05R
PITTSBURGH INT PTCLDY    73  66  78 CALM      30.04R
PITTSBURGH     CLEAR     73  63  70 W6        30.04R
INDIANA*       CLEAR     66  64  94 CALM      30.07R
LATROBE        CLEAR     68  64  88 CALM      30.05R
WASHINGTON CO* CLEAR     66  63  88 CALM      30.05R
$$

PAZ004>006-010>012-017>019-024>028-033>037-041-042-045-046-049>053-210200-
CENTRAL PENNSYLVANIA

CITY           SKY/WX    TMP DP  RH WIND       PRES   REMARKS
BRADFORD       CLEAR     63  59  87 CALM      30.09R
DUBOIS         CLEAR     70  57  63 NW3       30.06R
CLEARFIELD     CLEAR     66  60  81 N5        30.05R
JOHNSTOWN      CLEAR     70  56  61 NW6       30.08R
ALTOONA        CLEAR     64  59  83 S3        30.04R
STATE COLLEGE  PTCLDY    72  59  64 CALM      30.02R
WILLIAMSPORT   CLEAR     67  63  87 SW3       29.98R
SELINSGROVE    CLEAR     65  64  97 N3        29.98R
FT INDIANTOWN  CLEAR     68  64  86 CALM      29.96R
CAPITAL CITY   CLEAR     73  61  65 W3        29.97R
HARRISBURG     PTCLDY    71  64  78 N3        29.96R
YORK           CLEAR     64  64 100 CALM      29.97R
$$

PAZ038>040-043-044-047-048-054-055-060>062-067>071-210200-
EASTERN PENNSYLVANIA

CITY           SKY/WX    TMP DP  RH WIND       PRES   REMARKS
SCRANTON       CLEAR     71  62  73 E5        29.99R
MOUNT POCONO   CLEAR     67  60  78 N7        30.03R
ALLENTOWN      MOCLDY    73  62  68 NW3       29.95R
QUAKERTOWN*    MOCLDY    72  66  83 CALM      29.96S
READING        CLEAR     73  66  78 NE3       29.94R
LANCASTER      CLEAR     74  65  73 W5        29.96R
COATESVILLE    CLEAR     72  64  78 CALM      29.98R
POTTSTOWN      CLEAR     70  66  87 CALM      29.96S
BLUE BELL      PTCLDY    66  64  94 CALM      29.95S
DOYLESTOWN     CLEAR     70  65  84 CALM      29.94S
WILLOW GROVE   NOT AVBL
NORTH PHILA    PTCLDY    76  66  71 CALM      29.94R
PHILADELPHIA   PTCLDY    79  64  60 VRB3      29.93R
$$



USA.gov is the U.S. government's official web portal to all federal, state and local government web resources and services.